WJA250 CYEG-CYYC

Flight info

Callsign WJA250
Flight time 0h 30m
Altitude 24000
Route OLIMI Q814 ADVOX ADVOX9
Aircraft B738/M-SDE2E3FGHIRWXY/LB1

Departure

Time 2026-04-29 02:17
Airport Edmonton International Airport (CYEG)

Arrival

Time 2026-04-29 02:48
Airport Calgary International Airport (CYYC)
Time Latitude Longitude Altitude Speed Heading
2026-04-29 02:04 53.30865 -113.58601 2383 ft 0 kts 86°
2026-04-29 02:10 53.30864 -113.58633 2383 ft 4 kts 86°
2026-04-29 02:11 53.30862 -113.58678 2385 ft 4 kts 86°
2026-04-29 02:11 53.30860 -113.58723 2389 ft 4 kts 86°
2026-04-29 02:11 53.30859 -113.58759 2383 ft 4 kts 104°
2026-04-29 02:11 53.30872 -113.58788 2385 ft 4 kts 166°
2026-04-29 02:12 53.30897 -113.58793 2387 ft 4 kts 176°
2026-04-29 02:12 53.30904 -113.58794 2383 ft 1 kts 176°
2026-04-29 02:14 53.30901 -113.58793 2383 ft 2 kts 176°
2026-04-29 02:14 53.30860 -113.58828 2387 ft 11 kts 247°
2026-04-29 02:14 53.30851 -113.58942 2383 ft 9 kts 266°
2026-04-29 02:15 53.30847 -113.59047 2383 ft 10 kts 267°
2026-04-29 02:15 53.30838 -113.59199 2383 ft 15 kts 263°
2026-04-29 02:15 53.30828 -113.59379 2383 ft 14 kts 270°
2026-04-29 02:15 53.30863 -113.59478 2383 ft 9 kts 314°
2026-04-29 02:16 53.30910 -113.59548 2386 ft 9 kts 333°
2026-04-29 02:16 53.30968 -113.59528 2387 ft 9 kts 34°
2026-04-29 02:16 53.30974 -113.59520 2384 ft 0 kts 36°
2026-04-29 02:16 53.31013 -113.59473 2386 ft 29 kts 36°
2026-04-29 02:17 53.31379 -113.59049 2384 ft 97 kts 34°
2026-04-29 02:17 53.32097 -113.58199 2402 ft 152 kts 36°
2026-04-29 02:17 53.33025 -113.57104 2805 ft 173 kts 35°
2026-04-29 02:17 53.34087 -113.55914 3362 ft 192 kts 34°
2026-04-29 02:18 53.35240 -113.54666 3899 ft 201 kts 33°
2026-04-29 02:18 53.36423 -113.53392 4548 ft 204 kts 33°
2026-04-29 02:18 53.37675 -113.52045 4895 ft 226 kts 32°
2026-04-29 02:18 53.39105 -113.50543 5037 ft 259 kts 28°
2026-04-29 02:19 53.40867 -113.50073 5805 ft 260 kts 348°
2026-04-29 02:19 53.42516 -113.51358 6555 ft 270 kts 320°
2026-04-29 02:19 53.43570 -113.53945 7426 ft 272 kts 288°
2026-04-29 02:19 53.43629 -113.57137 8285 ft 281 kts 262°
2026-04-29 02:20 53.43077 -113.60262 9327 ft 279 kts 251°
2026-04-29 02:20 53.42320 -113.63238 10356 ft 275 kts 249°
2026-04-29 02:20 53.41211 -113.65844 11276 ft 283 kts 226°
2026-04-29 02:20 53.39434 -113.67614 11573 ft 313 kts 207°
2026-04-29 02:21 53.37343 -113.69062 11787 ft 338 kts 205°
2026-04-29 02:21 53.35126 -113.70593 11971 ft 361 kts 205°
2026-04-29 02:21 53.32746 -113.72286 12168 ft 381 kts 206°
2026-04-29 02:21 53.30276 -113.74088 12656 ft 391 kts 206°
2026-04-29 02:22 53.27800 -113.75925 13595 ft 389 kts 207°
2026-04-29 02:22 53.25323 -113.77789 14337 ft 392 kts 207°
2026-04-29 02:22 53.22822 -113.79686 14980 ft 398 kts 207°
2026-04-29 02:22 53.20289 -113.81614 15672 ft 402 kts 207°
2026-04-29 02:23 53.17731 -113.83563 16388 ft 405 kts 207°
2026-04-29 02:23 53.15155 -113.85524 17079 ft 409 kts 207°
2026-04-29 02:23 53.12548 -113.87507 17754 ft 414 kts 207°
2026-04-29 02:23 53.09917 -113.89505 18420 ft 418 kts 207°
2026-04-29 02:24 53.07259 -113.91520 19044 ft 420 kts 207°
2026-04-29 02:24 53.04588 -113.93541 19622 ft 424 kts 207°
2026-04-29 02:24 53.01879 -113.95588 20142 ft 429 kts 207°
2026-04-29 02:25 52.96382 -113.99734 21181 ft 438 kts 207°
2026-04-29 02:25 52.93593 -114.01834 21694 ft 442 kts 207°
2026-04-29 02:25 52.90777 -114.03951 22209 ft 446 kts 207°
2026-04-29 02:25 52.87939 -114.06081 22705 ft 450 kts 207°
2026-04-29 02:26 52.85074 -114.08228 23194 ft 454 kts 207°
2026-04-29 02:26 52.82189 -114.10386 23780 ft 455 kts 206°
2026-04-29 02:26 52.79285 -114.12342 24118 ft 459 kts 202°
2026-04-29 02:26 52.76230 -114.14078 24147 ft 469 kts 200°
2026-04-29 02:27 52.73050 -114.15752 24152 ft 477 kts 199°
2026-04-29 02:27 52.69907 -114.17373 24152 ft 480 kts 199°
2026-04-29 02:27 52.66726 -114.19007 24132 ft 479 kts 198°
2026-04-29 02:27 52.63453 -114.20075 24135 ft 481 kts 187°
2026-04-29 02:28 52.60113 -114.20214 24130 ft 481 kts 179°
2026-04-29 02:28 52.56757 -114.20046 24135 ft 481 kts 179°
2026-04-29 02:28 52.53419 -114.19902 24138 ft 481 kts 179°
2026-04-29 02:28 52.50074 -114.19782 24140 ft 480 kts 180°
2026-04-29 02:29 52.46732 -114.19682 24131 ft 480 kts 180°
2026-04-29 02:29 52.43400 -114.19594 24129 ft 479 kts 180°
2026-04-29 02:29 52.40072 -114.19514 24129 ft 478 kts 180°
2026-04-29 02:29 52.36746 -114.19436 24125 ft 478 kts 180°
2026-04-29 02:30 52.33421 -114.19359 24129 ft 477 kts 180°
2026-04-29 02:30 52.30104 -114.19281 24129 ft 477 kts 180°
2026-04-29 02:30 52.26778 -114.19202 24130 ft 477 kts 180°
2026-04-29 02:30 52.23462 -114.19122 24130 ft 477 kts 180°
2026-04-29 02:31 52.20144 -114.19042 24128 ft 477 kts 180°
2026-04-29 02:31 52.16818 -114.18962 24126 ft 478 kts 180°
2026-04-29 02:31 52.13484 -114.18882 24124 ft 478 kts 180°
2026-04-29 02:31 52.10156 -114.18802 24125 ft 479 kts 180°
2026-04-29 02:32 52.06880 -114.18724 24057 ft 474 kts 180°
2026-04-29 02:32 52.03594 -114.18644 23488 ft 469 kts 180°
2026-04-29 02:32 52.00354 -114.18565 22835 ft 462 kts 180°
2026-04-29 02:32 51.97165 -114.18487 22242 ft 455 kts 180°
2026-04-29 02:33 51.94024 -114.18411 21614 ft 449 kts 180°
2026-04-29 02:33 51.90916 -114.18338 21012 ft 444 kts 180°
2026-04-29 02:33 51.88836 -114.18289 20595 ft 440 kts 180°
2026-04-29 02:33 51.84803 -114.18195 19801 ft 434 kts 180°
2026-04-29 02:34 51.82807 -114.18148 19410 ft 432 kts 180°
2026-04-29 02:34 51.79780 -114.18076 18813 ft 427 kts 180°
2026-04-29 02:34 51.76859 -114.18008 18207 ft 424 kts 180°
2026-04-29 02:34 51.73927 -114.17938 17541 ft 420 kts 180°
2026-04-29 02:35 51.71024 -114.17869 16941 ft 415 kts 180°
2026-04-29 02:35 51.68145 -114.17801 16316 ft 411 kts 180°
2026-04-29 02:35 51.65293 -114.17734 15692 ft 409 kts 181°
2026-04-29 02:35 51.62459 -114.17667 15103 ft 405 kts 181°
2026-04-29 02:36 51.59646 -114.17601 14523 ft 403 kts 181°
2026-04-29 02:36 51.56852 -114.17536 13952 ft 400 kts 181°
2026-04-29 02:36 51.54080 -114.17471 13326 ft 397 kts 181°
2026-04-29 02:36 51.51327 -114.17407 12708 ft 394 kts 181°
2026-04-29 02:37 51.48596 -114.17343 12283 ft 389 kts 181°
2026-04-29 02:37 51.45925 -114.17279 11940 ft 379 kts 181°
2026-04-29 02:37 51.43347 -114.17216 11593 ft 364 kts 181°
2026-04-29 02:37 51.40865 -114.17157 11258 ft 350 kts 181°
2026-04-29 02:38 51.38482 -114.17100 10972 ft 334 kts 181°
2026-04-29 02:38 51.36207 -114.17047 10675 ft 321 kts 181°
2026-04-29 02:38 51.34018 -114.16996 10396 ft 309 kts 182°
2026-04-29 02:38 51.31910 -114.16947 10131 ft 298 kts 182°
2026-04-29 02:39 51.29875 -114.16900 9875 ft 287 kts 182°
2026-04-29 02:39 51.27938 -114.16856 9611 ft 278 kts 182°
2026-04-29 02:39 51.26036 -114.16813 9353 ft 269 kts 182°
2026-04-29 02:39 51.24194 -114.16772 9094 ft 261 kts 182°
2026-04-29 02:40 51.22401 -114.16731 8834 ft 254 kts 182°
2026-04-29 02:40 51.20661 -114.16692 8576 ft 247 kts 181°
2026-04-29 02:40 51.18963 -114.16653 8329 ft 241 kts 182°
2026-04-29 02:40 51.17306 -114.16616 8150 ft 235 kts 182°
2026-04-29 02:41 51.15675 -114.16579 8074 ft 235 kts 181°
2026-04-29 02:41 51.13990 -114.16544 8051 ft 243 kts 182°
2026-04-29 02:41 51.12332 -114.16505 7986 ft 233 kts 181°
2026-04-29 02:41 51.10753 -114.16466 7975 ft 221 kts 181°
2026-04-29 02:42 51.09236 -114.16431 8011 ft 215 kts 181°
2026-04-29 02:42 51.07730 -114.16398 8017 ft 219 kts 182°
2026-04-29 02:42 51.06190 -114.16365 8007 ft 222 kts 182°
2026-04-29 02:42 51.04620 -114.16345 7825 ft 229 kts 182°
2026-04-29 02:43 51.03014 -114.16345 7544 ft 230 kts 182°
2026-04-29 02:43 51.01429 -114.16279 7275 ft 225 kts 175°
2026-04-29 02:43 50.99950 -114.15576 7015 ft 221 kts 151°
2026-04-29 02:43 50.98793 -114.14040 6737 ft 214 kts 130°
2026-04-29 02:44 50.98097 -114.12039 6377 ft 204 kts 104°
2026-04-29 02:44 50.97845 -114.09919 6182 ft 186 kts 94°
2026-04-29 02:44 50.97892 -114.08021 6098 ft 162 kts 74°
2026-04-29 02:44 50.98355 -114.06440 5808 ft 159 kts 52°
2026-04-29 02:45 50.99096 -114.05185 5604 ft 153 kts 38°
2026-04-29 02:45 51.00006 -114.04353 5373 ft 148 kts 28°
2026-04-29 02:45 51.00914 -114.03689 5274 ft 141 kts 24°
2026-04-29 02:45 51.01828 -114.03102 5052 ft 144 kts 21°
2026-04-29 02:46 51.02806 -114.02624 4872 ft 149 kts 15°
2026-04-29 02:46 51.03835 -114.02286 4672 ft 152 kts 12°
2026-04-29 02:46 51.04877 -114.02106 4553 ft 150 kts
2026-04-29 02:46 51.05917 -114.02157 4379 ft 151 kts
2026-04-29 02:47 51.06989 -114.02184 4162 ft 156 kts
2026-04-29 02:47 51.08075 -114.02164 3948 ft 156 kts
2026-04-29 02:47 51.09172 -114.02151 3751 ft 158 kts
2026-04-29 02:47 51.10274 -114.02159 3559 ft 155 kts
2026-04-29 02:48 51.11234 -114.02138 3559 ft 117 kts
2026-04-29 02:48 51.11903 -114.02136 3558 ft 75 kts
2026-04-29 02:48 51.12272 -114.02091 3557 ft 32 kts 24°
2026-04-29 02:48 51.12349 -114.02026 3558 ft 2 kts 28°
2026-04-29 02:49 51.12382 -114.01997 3558 ft 9 kts 29°
2026-04-29 02:49 51.12484 -114.01904 3555 ft 19 kts 30°
2026-04-29 02:49 51.12592 -114.01806 3558 ft 18 kts 19°
2026-04-29 02:49 51.12710 -114.01794 3557 ft 17 kts 359°
2026-04-29 02:50 51.12823 -114.01795 3557 ft 16 kts
2026-04-29 02:50 51.12931 -114.01794 3558 ft 15 kts 359°
2026-04-29 02:50 51.13035 -114.01795 3558 ft 14 kts 359°
2026-04-29 02:50 51.13102 -114.01767 3554 ft 9 kts 26°
2026-04-29 02:51 51.13178 -114.01720 3556 ft 15 kts
2026-04-29 02:51 51.13260 -114.01725 3554 ft 7 kts
2026-04-29 02:51 51.13278 -114.01684 3558 ft 5 kts 90°
2026-04-29 02:51 51.13278 -114.01629 3558 ft 4 kts 90°
2026-04-29 02:52 51.13278 -114.01596 3558 ft 2 kts 90°
2026-04-29 02:52 51.13278 -114.01592 3558 ft 0 kts 90°